When you browse on this site, cookies collect data to enhance your experience and personalize the content and advertising you see.
Visit our Privacy Policy to learn more. By continuing to use the site, you agree to this use of cookies and data.
  • In Hungary
  • List of Countries
  • For 7 days
  • Water Temperature
  • Satellite Maps
  • Weather Map
  • News
  • Weather Widgets
  • user-avatar
    Login

    Hourly Weather Karauli

    Today, 19 April, Friday

    Time Temperature Precipitation Wind Pressure Humidity
    00:00 +28°C° 0 mm 2 mps 734 mmHg 42%
    01:00 +27°C° 0 mm 2 mps 734 mmHg 43%
    02:00 +27°C° 0 mm 2 mps 734 mmHg 45%
    03:00 +27°C° 0 mm 2 mps 734 mmHg 46%
    04:00 +26°C° 0 mm 2 mps 734 mmHg 46%
    05:00 +26°C° 0 mm 1 mps 734 mmHg 47%
    06:00 +27°C° 0 mm 2 mps 734 mmHg 44%
    07:00 +28°C° 0 mm 2 mps 735 mmHg 41%
    08:00 +29°C° 0 mm 2 mps 735 mmHg 38%
    09:00 +30°C° 0 mm 2 mps 735 mmHg 35%
    10:00 +31°C° 0 mm 2 mps 735 mmHg 31%
    11:00 +31°C° 0 mm 2 mps 735 mmHg 30%
    12:00 +32°C° 0 mm 2 mps 735 mmHg 27%
    13:00 +34°C° 0 mm 2 mps 734 mmHg 25%
    14:00 +35°C° 0 mm 2 mps 734 mmHg 22%
    15:00 +35°C° 0 mm 3 mps 733 mmHg 22%
    16:00 +35°C° 0 mm 3 mps 733 mmHg 22%
    17:00 +35°C° 0 mm 3 mps 733 mmHg 21%
    18:00 +34°C° 0 mm 3 mps 733 mmHg 23%
    19:00 +34°C° 0 mm 2 mps 733 mmHg 24%
    20:00 +32°C° 0 mm 2 mps 733 mmHg 26%
    21:00 +31°C° 0 mm 1 mps 733 mmHg 27%
    22:00 +31°C° 0 mm 1 mps 733 mmHg 28%
    23:00 +30°C° 0 mm 1 mps 733 mmHg 29%

    Tomorrow, 20 April, Saturday

    Time Temperature Precipitation Wind Pressure Humidity
    00:00 +30°C° 0 mm 1 mps 733 mmHg 31%
    01:00 +29°C° 0 mm 1 mps 732 mmHg 32%
    02:00 +29°C° 0 mm 1 mps 732 mmHg 33%
    03:00 +28°C° 0 mm 1 mps 732 mmHg 34%
    04:00 +28°C° 0 mm 1 mps 732 mmHg 35%
    05:00 +27°C° 0 mm 1 mps 732 mmHg 36%
    06:00 +29°C° 0 mm 1 mps 732 mmHg 33%
    07:00 +30°C° 0 mm 1 mps 733 mmHg 30%
    08:00 +31°C° 0 mm 2 mps 733 mmHg 27%
    09:00 +32°C° 0 mm 2 mps 733 mmHg 25%
    10:00 +34°C° 0 mm 2 mps 733 mmHg 23%
    11:00 +35°C° 0 mm 2 mps 733 mmHg 21%
    12:00 +36°C° 0 mm 2 mps 733 mmHg 19%
    13:00 +37°C° 0 mm 2 mps 732 mmHg 18%
    14:00 +38°C° 0 mm 2 mps 731 mmHg 16%
    15:00 +38°C° 0 mm 2 mps 731 mmHg 16%
    16:00 +38°C° 0 mm 3 mps 731 mmHg 15%
    17:00 +38°C° 0 mm 3 mps 730 mmHg 15%
    18:00 +37°C° 0 mm 3 mps 731 mmHg 16%
    19:00 +36°C° 0 mm 2 mps 731 mmHg 17%
    20:00 +35°C° 0 mm 2 mps 731 mmHg 19%
    21:00 +35°C° 0 mm 2 mps 732 mmHg 19%
    22:00 +34°C° 0 mm 2 mps 732 mmHg 20%
    23:00 +33°C° 0 mm 1 mps 732 mmHg 21%

    Day after tomorrow, 21 April, Sunday

    Time Temperature Precipitation Wind Pressure Humidity
    00:00 +32°C° 0 mm 2 mps 731 mmHg 22%
    01:00 +31°C° 0 mm 2 mps 731 mmHg 22%
    02:00 +31°C° 0 mm 2 mps 731 mmHg 23%
    03:00 +30°C° 0 mm 2 mps 731 mmHg 25%
    04:00 +30°C° 0 mm 2 mps 730 mmHg 26%
    05:00 +29°C° 0 mm 1 mps 730 mmHg 27%
    06:00 +30°C° 0 mm 2 mps 731 mmHg 25%
    07:00 +32°C° 0 mm 2 mps 732 mmHg 24%
    08:00 +34°C° 0 mm 2 mps 732 mmHg 22%
    09:00 +35°C° 0 mm 1 mps 732 mmHg 20%
    10:00 +36°C° 0 mm 1 mps 732 mmHg 18%
    11:00 +37°C° 0 mm 1 mps 732 mmHg 16%
    12:00 +39°C° 0 mm 2 mps 732 mmHg 15%
    13:00 +40°C° 0 mm 3 mps 731 mmHg 14%
    14:00 +42°C° 0 mm 4 mps 731 mmHg 13%
    15:00 +42°C° 0 mm 4 mps 731 mmHg 13%
    16:00 +42°C° 0 mm 4 mps 730 mmHg 13%
    17:00 +42°C° 0 mm 4 mps 730 mmHg 13%
    18:00 +40°C° 0 mm 3 mps 730 mmHg 14%
    19:00 +39°C° 0 mm 2 mps 731 mmHg 15%
    20:00 +37°C° 0 mm 2 mps 731 mmHg 17%
    21:00 +36°C° 0 mm 1 mps 731 mmHg 17%
    22:00 +35°C° 0 mm 1 mps 731 mmHg 18%
    23:00 +34°C° 0 mm 1 mps 731 mmHg 19%

    22 April, Monday

    Time Temperature Precipitation Wind Pressure Humidity
    00:00 +34°C° 0 mm 1 mps 731 mmHg 20%
    01:00 +31°C° 0 mm 0 mps 730 mmHg 21%
    02:00 +31°C° 0 mm 0 mps 730 mmHg 22%
    03:00 +32°C° 0 mm 1 mps 730 mmHg 22%
    04:00 +32°C° 0 mm 1 mps 730 mmHg 22%
    05:00 +32°C° 0 mm 2 mps 730 mmHg 22%
    06:00 +34°C° 0 mm 2 mps 731 mmHg 20%
    07:00 +36°C° 0 mm 3 mps 731 mmHg 18%
    08:00 +37°C° 0 mm 3 mps 732 mmHg 17%
    09:00 +40°C° 0 mm 4 mps 732 mmHg 15%
    10:00 +41°C° 0 mm 5 mps 732 mmHg 13%
    11:00 +43°C° 0 mm 5 mps 732 mmHg 11%
    12:00 +45°C° 0 mm 5 mps 732 mmHg 10%
    13:00 +46°C° 0 mm 5 mps 731 mmHg 8%
    14:00 +46°C° 0 mm 5 mps 731 mmHg 7%
    15:00 +46°C° 0 mm 5 mps 730 mmHg 7%
    16:00 +46°C° 0 mm 5 mps 730 mmHg 7%
    17:00 +46°C° 0 mm 5 mps 730 mmHg 7%
    18:00 +43°C° 0 mm 4 mps 730 mmHg 8%
    19:00 +42°C° 0 mm 3 mps 731 mmHg 10%
    20:00 +39°C° 0 mm 2 mps 731 mmHg 11%
    21:00 +38°C° 0 mm 2 mps 731 mmHg 12%
    22:00 +37°C° 0 mm 2 mps 731 mmHg 13%
    23:00 +37°C° 0 mm 2 mps 731 mmHg 14%

    23 April, Tuesday

    Time Temperature Precipitation Wind Pressure Humidity
    00:00 +36°C° 0 mm 2 mps 731 mmHg 14%
    01:00 +36°C° 0 mm 2 mps 731 mmHg 15%
    02:00 +34°C° 0 mm 1 mps 730 mmHg 15%
    03:00 +33°C° 0 mm 1 mps 731 mmHg 16%
    04:00 +34°C° 0 mm 2 mps 731 mmHg 16%
    05:00 +34°C° 0 mm 2 mps 731 mmHg 17%
    06:00 +34°C° 0 mm 1 mps 732 mmHg 16%
    07:00 +35°C° 0 mm 1 mps 732 mmHg 15%
    08:00 +37°C° 0 mm 1 mps 733 mmHg 14%
    09:00 +40°C° 0 mm 2 mps 733 mmHg 12%
    10:00 +41°C° 0 mm 2 mps 733 mmHg 11%
    11:00 +44°C° 0 mm 3 mps 733 mmHg 10%
    12:00 +45°C° 0 mm 4 mps 732 mmHg 9%
    13:00 +47°C° 0 mm 4 mps 732 mmHg 8%
    14:00 +47°C° 0 mm 5 mps 731 mmHg 8%
    15:00 +47°C° 0 mm 5 mps 731 mmHg 8%
    16:00 +47°C° 0 mm 5 mps 731 mmHg 8%
    17:00 +47°C° 0 mm 5 mps 730 mmHg 8%
    18:00 +44°C° 0 mm 4 mps 731 mmHg 9%
    19:00 +43°C° 0 mm 3 mps 731 mmHg 10%
    20:00 +40°C° 0 mm 3 mps 732 mmHg 11%
    21:00 +40°C° 0 mm 3 mps 732 mmHg 12%
    22:00 +39°C° 0 mm 3 mps 732 mmHg 12%
    23:00 +38°C° 0 mm 2 mps 732 mmHg 13%

    24 April, Wednesday

    Time Temperature Precipitation Wind Pressure Humidity
    00:00 +38°C° 0 mm 2 mps 731 mmHg 13%
    01:00 +37°C° 0 mm 2 mps 731 mmHg 14%
    02:00 +37°C° 0 mm 2 mps 731 mmHg 14%
    03:00 +36°C° 0 mm 2 mps 731 mmHg 15%
    04:00 +35°C° 0 mm 2 mps 731 mmHg 15%
    05:00 +35°C° 0 mm 2 mps 731 mmHg 16%
    06:00 +36°C° 0 mm 3 mps 732 mmHg 15%
    07:00 +38°C° 0 mm 4 mps 733 mmHg 13%
    08:00 +40°C° 0 mm 4 mps 733 mmHg 12%
    09:00 +42°C° 0 mm 5 mps 733 mmHg 11%
    10:00 +45°C° 0 mm 5 mps 733 mmHg 10%
    11:00 +47°C° 0 mm 5 mps 733 mmHg 8%
    12:00 +47°C° 0 mm 5 mps 733 mmHg 8%
    13:00 +48°C° 0 mm 4 mps 732 mmHg 7%
    14:00 +48°C° 0 mm 4 mps 731 mmHg 7%
    15:00 +48°C° 0 mm 4 mps 731 mmHg 7%
    16:00 +48°C° 0 mm 4 mps 731 mmHg 7%
    17:00 +47°C° 0 mm 4 mps 731 mmHg 7%
    18:00 +45°C° 0 mm 4 mps 731 mmHg 8%
    19:00 +43°C° 0 mm 4 mps 732 mmHg 9%
    20:00 +42°C° 0 mm 3 mps 732 mmHg 10%
    21:00 +40°C° 0 mm 3 mps 732 mmHg 11%
    22:00 +39°C° 0 mm 3 mps 732 mmHg 12%
    23:00 +39°C° 0 mm 3 mps 732 mmHg 12%
    Show more